Date,TemperatureHighF,TemperatureAvgF,TemperatureLowF,DewpointHighF,DewpointAvgF,DewpointLowF,HumidityHigh,HumidityAvg,HumidityLow,PressureMaxIn,PressureMinIn,WindSpeedMaxMPH,WindSpeedAvgMPH,GustSpeedMaxMPH,PrecipitationSumIn
2013-3-1,41.5,36.9,31.6,16.1,11.9,7.4,43,36,29,31.95,31.81,5,1,10,0.00
2013-3-2,37.6,31.8,27.9,8.6,6.0,2.2,39,33,29,31.92,31.84,6,1,13,0.00
2013-3-3,40.6,31.2,25.7,8.3,4.6,0.3,41,33,23,31.95,31.87,8,2,14,0.00
2013-3-4,41.5,31.9,23.7,6.9,2.1,-1.5,34,28,21,32.04,31.95,9,2,13,0.00
2013-3-5,53.4,39.2,29.8,15.8,7.6,2.0,47,27,21,32.07,31.84,6,1,11,0.00
2013-3-6,38.1,34.5,32.5,34.1,23.6,15.4,91,66,42,32.07,31.72,7,1,13,0.00
2013-3-7,42.8,37.9,34.5,16.6,14.1,10.8,47,38,29,32.22,32.04,7,1,11,0.00
2013-3-8,42.8,36.8,32.9,18.1,13.5,10.4,50,38,30,32.34,32.19,8,2,14,0.00
2013-3-9,54.9,39.1,28.2,15.6,12.6,9.5,46,35,20,32.40,32.31,4,0,9,0.00
2013-3-10,64.0,41.7,23.5,23.5,14.6,9.0,61,36,18,0.00,40.00,8,1,11,0.00
2013-3-11,58.8,45.4,32.0,37.2,23.1,13.2,57,43,24,32.16,31.84,8,1,13,0.00
2013-3-12,56.8,48.3,37.6,42.6,28.9,11.3,85,50,27,31.95,31.75,9,2,17,0.00
2013-3-13,50.2,37.1,28.8,24.8,11.3,5.0,61,35,21,32.10,31.87,9,1,15,0.00
2013-3-14,44.8,34.8,27.9,8.8,5.1,1.5,40,29,20,32.13,32.07,8,4,15,0.00
2013-3-16,44.8,40.1,37.8,28.7,25.1,23.9,59,55,49,31.92,31.72,3,0,8,0.00
2013-3-17,41.2,37.3,34.9,25.8,17.1,9.9,63,45,29,32.22,31.92,4,0,6,0.00
2013-3-18,35.6,33.6,31.8,27.0,21.0,13.4,77,60,40,32.28,31.90,6,0,11,0.00
2013-3-19,58.1,41.8,32.9,36.5,19.7,0.9,86,50,17,31.98,31.78,8,1,13,0.00
2013-3-20,56.7,40.1,29.7,17.2,4.8,-4.0,50,24,17,32.01,31.81,6,1,12,0.00
2013-3-21,36.5,29.8,24.6,14.5,1.4,-6.5,45,30,22,31.92,31.81,7,2,13,0.00
2013-3-22,49.1,33.7,24.3,10.3,2.4,-3.3,33,27,19,32.04,31.90,7,1,13,0.00
2013-3-23,56.7,36.1,19.4,15.1,6.4,-0.4,54,31,17,32.04,31.95,5,0,11,0.00
2013-3-24,46.4,33.1,24.3,20.5,11.6,2.4,60,42,27,32.04,31.66,4,0,6,0.00
2013-3-25,41.4,35.4,32.7,28.9,24.1,18.5,72,63,51,31.75,31.57,3,0,7,0.00
2013-3-26,52.3,39.1,32.5,23.6,17.2,10.0,66,43,26,32.04,31.75,6,1,10,0.00
2013-3-27,49.5,39.1,33.1,22.2,14.3,10.7,47,37,27,32.16,32.04,6,1,12,0.00
2013-3-28,50.9,40.3,35.1,17.3,13.8,11.0,41,34,26,32.25,32.10,6,1,13,0.00
2013-3-29,60.6,45.6,34.3,19.3,14.6,6.9,46,30,17,32.28,32.19,5,0,8,0.00
2013-3-30,65.3,42.3,25.3,18.5,12.0,4.9,54,32,15,32.22,32.10,4,0,8,0.00
2013-3-31,50.4,40.9,32.5,40.1,26.8,8.7,72,58,36,32.10,31.78,0,0,2,0.00